Overview Statistics Trail Chart Weather Telemetry Raw packets
 

This is the latest recevied weather packets stored in our database for station/object 9W2KHE-10. If no packets are shown the sender has not sent any weather packets the latest 10 day(s).

<< 16 17 18 19 20 21 22 >>
Time Temp. Humidity Pressure Rain* Wind** Luminosity Snow
1788173996 32.78° C 54% 1012 hPa - - - -
1788173096 32.78° C 54% 1011.9 hPa - - - -
1788172196 33.33° C 54% 1011.8 hPa - - - -
1788171296 33.33° C 53% 1011.8 hPa - - - -
1788170399 33.33° C 53% 1011.9 hPa - - - -
1788169498 33.33° C 53% 1011.9 hPa - - - -
1788168598 33.33° C 53% 1012 hPa - - - -
1788167698 33.33° C 53% 1012.1 hPa - - - -
1788166798 33.33° C 54% 1012.2 hPa - - - -
1788165898 33.33° C 54% 1012.1 hPa - - - -
1788164997 32.78° C 55% 1012.2 hPa - - - -
1788164097 32.78° C 55% 1012.2 hPa - - - -
1788163197 32.78° C 56% 1012.4 hPa - - - -
1788162297 32.22° C 55% 1012.3 hPa - - - -
1788161397 32.22° C 55% 1012.5 hPa - - - -
1788160497 33.33° C 52% 1012.6 hPa - - - -
1788159597 31.67° C 58% 1013 hPa - - - -
1788158696 31.11° C 58% 1013.3 hPa - - - -
1788157796 31.11° C 58% 1013.4 hPa - - - -
1788156896 31.11° C 59% 1013.8 hPa - - - -
1788155996 30.56° C 59% 1014.1 hPa - - - -
1788155096 30.56° C 59% 1014.4 hPa - - - -
1788154196 30.56° C 59% 1014.7 hPa - - - -
1788153296 30° C 58% 1014.9 hPa - - - -
1788152396 30° C 57% 1015.2 hPa - - - -

* Rain since midnight (hover to see other rain measurements)
** Current wind speed in m/s (hover to see current wind gust speed)